This is the latest recevied weather packets stored in our database for station/object KM7BEO. If no packets are shown the sender has not sent any weather packets the latest 10 day(s).
| Time | Temp. | Humidity | Pressure | Rain* | Wind** | Luminosity | Snow |
|---|---|---|---|---|---|---|---|
| 1777996864 | 12.78° C | 89% | 1015 hPa | 0 mm | - | 59 W/m² | - |
| 1777996560 | 12.22° C | 89% | 1015 hPa | 0 mm | - | 56 W/m² | - |
| 1777996256 | 12.22° C | 89% | 1015.2 hPa | 0 mm | - | 55 W/m² | - |
| 1777995952 | 12.22° C | 89% | 1015.1 hPa | 0 mm | - | 52 W/m² | - |
| 1777995649 | 12.22° C | 90% | 1014.8 hPa | 0 mm | - | 47 W/m² | - |
| 1777995346 | 12.22° C | 90% | 1014.9 hPa | 0 mm | - | 48 W/m² | - |
| 1777995043 | 12.22° C | 90% | 1015 hPa | 0 mm | - | 45 W/m² | - |
| 1777994740 | 12.22° C | 90% | 1015 hPa | 0 mm | - | 40 W/m² | - |
| 1777994436 | 12.22° C | 90% | 1014.8 hPa | 0 mm | - | 40 W/m² | - |
| 1777994131 | 12.22° C | 91% | 1014.9 hPa | 0 mm | - | 36 W/m² | - |
| 1777993829 | 12.22° C | 91% | 1014.7 hPa | 0 mm | - | 38 W/m² | - |
| 1777993525 | 12.22° C | 91% | 1014.9 hPa | 0 mm | - | 35 W/m² | - |
| 1777993221 | 12.22° C | 91% | 1014.7 hPa | 0 mm | - | 33 W/m² | - |
| 1777992917 | 12.22° C | 91% | 1014.5 hPa | 0 mm | - | 33 W/m² | - |
| 1777992616 | 12.22° C | 91% | 1014.8 hPa | 0 mm | - | 29 W/m² | - |
| 1777992313 | 12.22° C | 91% | 1014.5 hPa | 0 mm | - | 29 W/m² | - |
| 1777992010 | 11.67° C | 92% | 1014.4 hPa | 0 mm | - | 27 W/m² | - |
| 1777991708 | 11.67° C | 92% | 1014.4 hPa | 0 mm | - | 24 W/m² | - |
| 1777991405 | 11.67° C | 92% | 1014.1 hPa | 0 mm | - | 22 W/m² | - |
| 1777991102 | 11.67° C | 92% | 1014.2 hPa | 0 mm | - | 20 W/m² | - |
| 1777990799 | 11.67° C | 93% | 1014.3 hPa | 0 mm | - | 20 W/m² | - |
| 1777990496 | 11.67° C | 93% | 1014.4 hPa | 0 mm | - | 17 W/m² | - |
| 1777989890 | 11.67° C | 93% | 1014.3 hPa | 0 mm | - | 15 W/m² | - |
| 1777989587 | 11.67° C | 94% | 1014.1 hPa | 0 mm | - | 15 W/m² | - |
| 1777989283 | 11.67° C | 94% | 1014 hPa | 0 mm | - | 11 W/m² | - |
* Rain latest hour (hover to see other rain measurements)
** Current wind speed in m/s (hover to see current wind gust speed)